Zurück zum Katalog

CZ-6A DEB

AktivPO
NORAD 61368·DEBRIS·🇨🇳 China

Gestartet Aug 6, 2024 von Taiyuan Satellite Launch Center

Loading…

Nächste Überflüge (nächste 24 Stunden)

TLE

AktuellSource: Space-Track

Epoche: Sep 14, 2026, 10:44 UTC

1 61368U 24140WH  26257.44776603  .00001997  00000-0  10962-2 0  9990
2 61368  88.8335 251.8412 0110914 325.4562  33.9448 14.08356903104024

Verfolge CZ-6A DEB in Echtzeit mit AllMySat

Download on the App Store